Theta_e
300 300 300 300 300 300 300 300 301 302 302 302 302 302 303 304 305 305 305 306 311 313 313 311 311 311 313 314 318 320 318 327 331 331 329 328 326 327 327 327 328 325 329 331 338
300 300 300 300 300 300 300 300 301 301 302 302 302 302 303 305 308 312 311 312 307 307 309 307 309 312 311 314 314 316 317 321 323 327 328 326 326 326 327 326 327 327 326 334 338
299 300 300 300 300 300 300 301 301 301 301 302 302 302 304 307 317 316 313 309 309 311 305 306 312 311 311 313 314 315 316 319 321 322 323 323 324 324 324 325 326 326 326 326 335
301 299 300 300 300 300 300 301 301 301 301 302 302 302 305 312 315 311 310 312 313 313 313 313 312 311 310 311 314 312 314 315 318 319 320 321 321 321 322 324 325 326 326 327 326
307 306 304 300 301 301 301 301 301 301 301 302 302 303 305 316 319 311 311 312 312 312 312 312 313 311 309 310 311 311 312 314 314 316 319 321 321 322 322 323 323 324 325 326 328
307 308 307 307 301 301 301 301 301 301 302 302 302 304 306 314 311 311 311 311 310 311 312 312 312 312 311 311 310 311 311 311 312 313 314 315 317 319 321 322 323 324 324 326 328
302 304 307 307 307 301 302 301 301 302 303 304 303 304 306 306 311 310 310 309 309 310 312 311 311 311 311 309 312 311 310 310 311 313 313 315 316 316 318 319 320 322 323 325 325
300 301 304 307 307 302 302 302 302 303 306 308 304 305 306 313 311 310 310 309 310 310 310 310 310 311 311 312 311 310 309 309 311 311 313 315 316 317 317 317 318 319 320 322 325
307 300 305 307 304 303 302 302 306 306 309 310 307 313 315 315 312 310 310 310 310 310 310 311 311 311 311 309 308 308 308 308 309 309 310 313 313 315 316 317 317 318 319 320 322
309 304 304 307 304 303 304 312 313 314 313 316 311 314 315 314 312 310 310 310 310 310 310 311 311 308 306 308 310 310 308 309 310 311 311 311 310 311 313 314 314 315 317 319 320
309 309 303 307 304 303 312 313 310 315 310 311 314 315 316 313 310 310 310 310 310 310 308 309 306 307 308 309 311 311 311 310 311 311 312 311 311 312 312 313 312 313 314 315 317
309 310 304 305 306 305 311 312 311 310 310 311 311 311 311 311 310 310 311 310 310 308 307 306 307 309 310 309 309 308 308 308 309 311 311 310 311 312 311 311 312 313 314 314 315
309 310 305 306 311 312 313 312 311 311 309 309 312 312 312 312 310 310 311 310 309 308 308 307 308 309 310 309 309 309 308 311 312 313 312 310 310 310 311 312 313 313 313 314 315
309 310 305 304 312 311 311 310 311 312 308 314 311 311 311 310 310 310 310 310 309 308 308 308 308 309 309 309 312 312 313 313 312 312 312 311 312 311 310 311 311 312 312 313 314
309 310 305 308 311 313 313 312 310 313 318 314 311 311 310 310 311 311 311 310 309 309 308 308 309 308 309 312 312 311 313 312 313 312 311 312 309 311 310 310 311 311 312 312 313
310 310 305 307 314 313 312 311 312 315 318 311 311 311 310 310 310 311 311 310 311 308 308 308 310 311 311 312 312 313 311 311 311 311 312 311 311 311 311 310 311 312 313 313 313
310 307 306 307 313 311 310 312 312 316 314 311 310 310 310 310 311 312 312 310 308 308 307 308 308 310 312 311 311 310 308 309 311 309 311 311 311 311 310 312 313 314 313 314 315
307 312 307 307 310 311 311 310 316 315 310 311 309 310 311 311 311 312 310 309 310 308 307 307 309 309 312 311 309 308 308 308 313 313 314 313 312 311 314 314 313 313 312 312 313
311 314 314 313 313 311 311 311 316 311 310 309 310 310 313 312 311 311 310 311 311 310 310 310 311 311 310 310 310 310 311 310 309 315 317 313 311 310 314 313 312 312 312 312 312
315 314 314 313 312 311 308 313 314 312 310 310 309 311 312 311 311 310 310 311 312 310 309 310 311 311 311 310 310 309 309 309 309 314 316 313 311 310 315 313 312 311 311 311 312
313 315 314 312 310 313 310 313 312 311 310 310 310 310 311 311 310 310 310 310 312 311 310 310 310 311 310 310 309 308 310 313 312 314 316 315 310 314 314 312 311 310 311 312 313
312 311 312 310 308 309 310 311 310 310 311 310 309 311 312 311 311 310 309 312 311 311 312 311 310 311 311 311 310 310 311 312 312 316 316 316 313 310 311 311 310 310 312 313 314
311 312 313 311 304 306 308 310 310 310 312 310 309 310 310 309 309 311 311 311 310 311 312 311 308 313 309 309 309 311 311 312 311 311 312 314 311 312 312 312 311 311 313 314 313
310 306 310 309 308 307 307 309 310 310 311 310 309 308 308 309 309 309 309 310 309 310 314 311 311 310 312 312 312 311 311 312 310 310 311 311 311 311 311 312 311 312 313 312 314
306 305 304 303 304 304 306 309 309 309 309 308 308 309 308 308 308 308 308 308 309 309 311 311 314 312 312 312 312 313 313 313 313 310 312 311 311 311 311 312 311 311 312 312 313
305 305 305 304 305 306 305 307 309 309 308 308 308 308 307 307 307 307 307 307 308 308 313 311 313 314 314 312 312 313 313 312 312 312 313 313 312 311 311 314 312 312 311 312 313
303 304 305 303 303 304 303 304 307 305 306 307 306 306 306 306 307 307 307 307 307 308 309 309 311 312 313 311 313 313 314 314 314 313 313 313 311 310 313 313 313 312 314 318 319
Wind_Speed
16 16 15 14 13 12 11 10 9 9 9 11 12 15 17 18 18 16 14 7 4 5 8 10 9 9 8 8 13 4 4 10 12 12 11 15 9 29 22 18 26 18 16 11 23
19 17 16 15 14 13 12 12 10 10 10 11 13 16 17 18 15 4 2 4 7 10 11 8 7 3 6 8 8 7 5 8 6 9 12 19 23 28 22 25 28 26 16 12 24
20 19 18 17 15 14 13 12 12 11 11 12 14 16 15 13 5 3 5 6 7 8 2 2 3 1 4 14 7 5 11 7 10 16 17 18 29 26 20 17 25 19 19 17 6
20 19 20 19 17 16 14 13 13 12 12 13 15 16 13 5 2 3 8 9 7 8 6 3 2 1 2 4 6 7 14 13 16 25 24 20 31 26 26 31 31 38 18 19 2
21 21 20 19 18 16 16 15 14 13 12 13 15 13 8 4 3 3 6 5 4 4 8 9 7 3 2 4 8 6 9 17 23 25 27 31 26 27 33 39 30 41 29 21 20
22 21 20 20 18 17 16 14 13 12 12 14 13 10 6 4 4 4 5 5 7 6 4 5 4 8 3 2 1 9 11 14 14 19 19 10 16 21 41 36 30 32 43 21 19
25 24 23 22 20 17 15 14 12 10 11 11 10 8 9 9 4 2 4 6 9 6 6 7 8 7 8 8 10 15 7 9 7 5 5 15 16 23 28 28 25 29 36 31 25
27 25 23 23 24 17 13 11 10 10 9 10 5 7 6 8 6 4 2 7 5 8 8 7 6 8 3 6 8 6 4 4 3 7 6 6 24 22 26 24 29 25 28 34 23
30 27 24 23 22 17 11 9 9 7 7 7 3 3 6 2 8 5 4 4 9 10 9 8 9 8 2 2 4 3 4 6 7 6 6 6 16 8 17 18 26 32 30 38 36
30 28 24 24 19 13 8 8 6 2 3 4 4 6 4 2 9 3 2 2 9 12 12 5 5 3 2 3 4 6 5 6 4 5 1 7 15 8 14 17 17 22 25 34 40
30 29 23 21 15 7 8 4 11 1 14 10 10 9 15 7 2 1 2 4 6 8 3 7 3 4 11 9 12 7 10 7 5 8 6 8 15 14 9 12 14 24 28 33 31
30 27 21 16 7 4 7 7 12 9 9 17 19 20 21 15 9 7 6 4 2 3 6 6 3 3 5 7 6 8 5 7 6 7 11 12 21 18 8 7 16 23 28 30 35
28 24 19 6 3 5 8 7 8 12 4 12 6 9 9 10 6 10 7 3 4 2 4 3 7 8 8 6 7 5 5 8 8 12 8 6 17 16 15 8 13 19 26 29 30
26 21 16 3 1 8 12 11 14 14 3 5 5 5 8 3 4 13 15 8 3 5 4 6 7 5 7 3 3 3 7 10 12 9 4 3 13 16 12 14 7 18 21 30 31
24 18 9 3 0 6 12 10 12 8 3 8 4 7 5 6 4 3 19 15 7 7 5 10 5 11 3 1 2 6 6 6 9 10 4 9 6 14 5 13 15 13 27 31 34
20 15 7 4 2 9 11 11 6 3 2 2 3 3 2 9 14 4 20 16 12 6 3 8 5 4 5 2 1 3 4 6 4 3 6 9 8 26 12 9 14 12 21 22 24
15 8 4 5 2 10 9 5 4 4 9 5 6 6 7 4 5 5 6 3 3 1 2 3 3 3 3 1 3 1 4 4 5 3 5 2 5 19 9 3 2 9 19 27 27
11 8 6 5 4 12 12 4 6 10 11 9 8 9 2 12 6 8 5 4 7 6 1 3 6 2 2 4 5 5 6 4 4 6 10 13 7 5 7 4 6 11 16 26 29
11 9 10 4 8 14 4 5 1 5 6 7 7 3 5 10 6 8 6 3 5 6 2 3 5 8 6 3 2 2 4 7 3 3 5 5 7 6 5 6 10 15 18 27 35
8 9 9 9 10 6 5 2 3 9 1 4 3 4 5 8 5 7 4 6 4 4 3 3 7 4 2 6 9 6 2 2 2 3 5 5 5 6 8 8 10 13 16 29 33
5 3 7 6 5 5 3 4 5 20 3 1 3 5 4 3 4 4 4 7 9 2 6 1 2 5 4 5 13 3 2 2 2 3 4 5 5 6 8 10 8 12 21 27 37
6 2 6 6 5 2 1 5 10 11 15 3 1 3 2 2 3 3 5 3 11 1 3 1 1 4 10 20 9 4 4 5 3 3 3 3 8 10 11 12 7 14 27 32 32
10 5 3 4 2 4 6 5 4 5 7 6 5 3 2 2 3 3 3 8 15 2 3 1 1 5 7 3 3 2 4 4 4 2 6 4 8 5 11 10 13 14 26 31 32
6 4 5 4 3 2 5 5 6 8 3 6 3 8 6 4 2 5 7 4 20 11 7 6 2 6 7 15 10 13 15 15 9 4 6 14 19 17 20 15 10 15 15 26 29
6 2 3 4 3 5 3 3 6 6 3 4 3 2 3 3 5 5 3 12 13 16 5 6 5 10 19 21 20 19 19 21 16 15 12 18 16 17 9 17 12 24 25 26 30
4 6 7 8 12 6 4 4 5 9 3 4 3 6 1 4 8 16 12 4 7 5 4 3 5 6 15 18 16 17 18 20 19 14 9 5 11 11 15 19 14 20 23 24 25
6 7 3 6 6 3 1 4 7 9 8 8 9 5 5 11 19 23 24 22 14 11 4 5 3 3 5 8 13 6 4 4 3 2 3 6 10 9 16 17 19 29 31 21 27
Wind_Direction
353 348 343 339 335 332 331 330 325 322 324 325 323 320 319 316 314 298 284 266 255 287 296 287 258 233 215 233 216 221 204 227 227 237 250 319 310 300 312 331 331 339 347 27 197
357 353 348 341 335 330 327 326 325 322 321 321 322 324 325 327 326 332 64 47 334 301 279 294 210 168 215 226 220 192 210 223 246 248 287 308 298 297 328 326 315 336 351 50 191
357 355 351 343 335 328 323 320 319 316 316 318 321 328 330 333 348 53 30 20 54 37 25 252 206 309 211 236 220 218 244 258 273 283 289 291 288 301 304 300 298 314 330 347 151
356 353 349 344 336 327 319 314 314 313 314 318 322 329 334 334 147 49 59 74 61 33 22 38 345 263 230 237 230 252 262 263 263 267 270 272 285 282 281 273 287 291 304 305 5
351 350 348 343 335 327 320 314 313 313 315 317 320 326 340 297 247 74 90 67 28 31 358 340 320 286 227 253 320 258 277 276 274 268 256 261 264 273 280 278 285 292 292 286 294
343 342 341 340 333 324 317 310 307 309 313 317 318 321 326 283 128 34 26 337 342 285 355 311 337 348 259 313 344 310 309 297 303 295 286 288 288 285 271 282 284 283 287 289 297
342 337 336 335 333 322 313 309 306 306 313 316 311 313 290 253 143 214 351 356 337 347 276 314 315 326 326 331 329 314 307 316 294 281 287 296 279 259 275 287 297 272 282 287 279
347 340 334 333 331 323 312 310 306 306 312 322 297 299 262 136 191 248 257 301 319 303 298 294 264 267 234 272 320 324 324 327 310 351 280 176 262 264 270 282 283 283 284 281 277
352 345 337 333 331 325 320 317 313 305 309 327 324 298 270 207 211 172 304 338 306 305 289 279 272 206 235 77 350 322 258 266 306 239 232 175 269 293 306 292 274 279 277 281 284
348 347 339 334 332 331 343 346 343 23 46 311 214 313 253 334 190 230 314 67 312 312 311 296 232 122 11 95 240 254 262 268 279 291 34 289 275 283 300 309 307 315 306 283 274
343 344 340 336 332 343 34 68 20 31 319 258 268 248 286 309 341 297 288 301 340 350 358 315 76 211 247 227 244 263 271 270 284 297 281 275 276 286 285 299 304 305 304 304 304
338 342 342 338 350 14 28 47 15 317 301 285 255 255 268 275 262 263 308 197 60 284 334 8 287 242 282 311 314 312 311 309 275 304 305 302 288 284 270 256 286 287 290 294 297
338 339 340 327 12 14 351 6 357 331 322 298 242 224 235 232 225 233 241 193 224 282 319 198 252 295 316 317 330 337 353 348 335 324 333 329 288 292 293 259 281 296 299 295 296
339 337 339 351 28 71 39 12 343 320 50 275 154 193 176 194 262 243 223 204 200 218 241 253 251 269 288 299 42 335 348 331 321 329 279 6 285 286 289 289 267 284 297 301 300
341 333 338 329 60 22 341 331 312 314 47 169 160 186 204 189 282 227 207 201 207 224 123 250 279 278 295 5 327 268 333 306 306 286 297 262 263 286 327 295 298 289 282 283 288
348 330 333 217 21 353 331 339 306 40 17 84 81 1 11 245 251 260 184 212 250 211 210 238 260 133 168 225 286 311 318 318 326 222 247 275 220 277 256 272 276 328 350 333 327
356 352 348 181 16 340 335 359 56 72 337 21 13 340 318 307 312 313 186 231 272 43 2 325 325 96 121 329 331 157 14 327 331 346 241 8 296 260 270 64 107 318 319 332 328
23 44 79 117 6 349 357 51 63 355 26 24 352 315 345 21 10 353 27 357 49 50 80 176 321 313 81 212 257 241 181 165 258 280 289 290 249 266 80 41 318 300 308 322 324
65 69 80 71 6 350 356 54 115 0 355 346 332 310 5 21 351 4 342 24 45 53 61 315 260 325 285 15 73 254 193 206 188 231 262 236 278 279 45 341 333 324 322 319 322
79 66 49 21 357 2 65 292 329 320 48 1 10 348 343 1 25 14 306 56 2 80 108 327 301 186 283 332 268 181 211 272 10 286 251 260 270 257 313 302 310 315 314 311 313
20 34 10 328 352 33 107 254 322 344 92 123 255 269 324 11 343 348 298 325 24 15 96 91 194 276 3 237 281 312 222 59 125 201 267 295 260 230 247 260 266 282 296 310 309
17 35 13 17 38 40 342 320 332 356 351 329 22 70 136 300 268 280 227 244 343 88 23 51 248 282 278 278 280 239 213 159 194 210 230 257 259 258 224 244 248 286 309 309 301
352 317 332 323 60 337 318 323 324 324 2 29 325 17 168 247 303 245 301 320 315 95 140 241 287 301 315 27 322 121 225 225 231 209 223 254 264 233 250 253 256 283 312 300 305
11 4 332 38 43 83 4 291 319 307 69 34 328 5 11 349 4 298 305 310 333 316 155 141 221 229 255 277 284 282 282 277 231 207 248 249 277 295 289 280 243 258 315 301 303
25 40 6 306 330 331 227 295 329 359 20 40 329 358 90 296 297 246 304 316 317 298 115 132 258 253 258 265 271 269 269 273 266 242 239 271 271 286 287 306 242 237 297 308 307
41 5 344 303 308 317 345 345 339 336 293 289 228 286 217 231 232 280 275 275 246 272 181 148 271 279 284 268 263 267 267 261 254 264 265 289 280 248 313 308 289 260 293 306 317
32 10 313 291 318 351 235 329 316 338 302 17 334 304 283 277 279 273 267 259 244 259 216 162 241 259 263 302 302 282 308 319 312 307 303 277 274 344 327 323 334 319 312 348 353